This demonstration page uses our WeatherBlox Daily Observations layout. Learn more.

38.89511, -77.03637

Hourly Observations for January 27, 2015

Temp ( °F °C ) Dew Point ( °F °C ) Humidity (%) Winds ( mph kmh ) Pressure ( in mb ) Visibility ( mi km ) Precip ( " mm )
12:49 am 00:49 Cloudy with Light Snow 30 -1 21 -6 69 69 NNW 15 24 29.77 1008 4 6.437376 0.001 0.001
12:52 am 00:52 Cloudy with Light Snow 30 -1 21 -6 69 69 NNW 14 22 29.77 1008 5 8.04672 0.001 0.001
1:32 am 01:32 Cloudy with Light Snow 30 -1 23 -5 75 75 NNW 16 26 29.74 1007 6 9.656064 0 0
1:52 am 01:52 Cloudy with Light Snow 30 -1 23 -5 75 75 NNW 17 28 29.74 1007 4 6.437376 0.01 0.254
2:52 am 02:52 Cloudy with Light Snow 30 -1 25 -4 80 80 NNW 15 24 29.74 1007 5 8.04672 0.001 0.001
3:52 am 03:52 Cloudy with Light Snow 30 -1 23 -5 75 75 NNW 13 20 29.77 1008 7 11.265408 0.001 0.001
4:52 am 04:52 Cloudy with Light Snow 32 0 23 -5 69 69 NNW 12 19 29.77 1008 7 11.265408 0.001 0.001
5:52 am 05:52 Cloudy with Light Snow 30 -1 21 -6 69 69 NNW 15 24 29.77 1008 9 14.484096 0.001 0.001
6:52 am 06:52 Cloudy 30 -1 21 -6 69 69 NNW 14 22 29.8 1009 9 14.484096 0.001 0.001
7:52 am 07:52 Cloudy with Light Snow 32 0 23 -5 69 69 NNW 12 19 29.83 1010 8 12.874752 0.001 0.001
8:52 am 08:52 Cloudy 32 0 21 -6 64 64 NW 13 20 29.83 1010 10 16.09344 0.001 0.001
9:52 am 09:52 Cloudy 32 0 21 -6 64 64 NNW 12 19 29.83 1010 10 16.09344 0 0
10:52 am 10:52 Cloudy 34 1 21 -6 60 60 NW 12 19 29.83 1010 10 16.09344 0 0
11:07 am 11:07 Cloudy 34 1 21 -6 60 60 NNW 13 20 29.83 1010 10 16.09344 0 0
11:33 am 11:33 Cloudy 34 1 21 -6 60 60 NNW 14 22 29.83 1010 10 16.09344 0 0
11:52 am 11:52 Cloudy 34 1 21 -6 60 60 NNW 18 30 29.83 1010 10 16.09344 0 0
12:32 pm 12:32 Mostly Cloudy 36 2 21 -6 56 56 NW 15 24 29.83 1010 10 16.09344 0 0
12:52 pm 12:52 Mostly Cloudy 36 2 23 -5 60 60 NNW 16 26 29.8 1009 10 16.09344 0 0
1:52 pm 13:52 Cloudy 36 2 23 -5 60 60 NNW 17 28 29.8 1009 10 16.09344 0 0
2:44 pm 14:44 Mostly Cloudy 36 2 23 -5 60 60 NW 21 33 29.8 1009 10 16.09344 0 0
2:52 pm 14:52 Mostly Cloudy 36 2 23 -5 60 60 NW 15 24 29.8 1009 10 16.09344 0 0
3:52 pm 15:52 Mostly Cloudy 36 2 21 -6 56 56 NNW 18 30 29.83 1010 10 16.09344 0 0
3:54 pm 15:54 Mostly Cloudy 36 2 21 -6 56 56 NNW 17 28 29.83 1010 10 16.09344 0 0
4:07 pm 16:07 Mostly Cloudy 36 2 21 -6 56 56 NW 20 31 29.83 1010 10 16.09344 0 0
4:17 pm 16:17 Mostly Cloudy 36 2 21 -6 56 56 NW 20 31 29.83 1010 10 16.09344 0 0
4:23 pm 16:23 Mostly Cloudy 36 2 21 -6 56 56 NW 15 24 29.83 1010 10 16.09344 0 0
4:34 pm 16:34 Mostly Cloudy 36 2 21 -6 56 56 NW 16 26 29.83 1010 10 16.09344 0 0
4:40 pm 16:40 Mostly Cloudy 36 2 21 -6 56 56 NW 18 30 29.83 1010 10 16.09344 0 0
4:52 pm 16:52 Mostly Cloudy 36 2 21 -6 56 56 NNW 14 22 29.85 1011 10 16.09344 0 0
5:52 pm 17:52 Mostly Cloudy 34 1 21 -6 60 60 NW 16 26 29.85 1011 10 16.09344 0 0
6:52 pm 18:52 Mostly Cloudy 34 1 21 -6 60 60 NW 16 26 29.88 1012 10 16.09344 0 0
7:52 pm 19:52 Mostly Clear 34 1 18 -8 51 51 NW 17 28 29.91 1013 10 16.09344 0 0
8:52 pm 20:52 Mostly Clear 32 0 18 -8 55 55 NW 16 26 29.91 1013 10 16.09344 0 0
9:52 pm 21:52 Mostly Clear 30 -1 16 -9 55 55 NW 14 22 29.94 1014 10 16.09344 0 0
10:52 pm 22:52 Mostly Clear 30 -1 16 -9 55 55 NNW 17 28 29.97 1015 10 16.09344 0 0
11:52 pm 23:52 Mostly Clear 30 -1 14 -10 51 51 NNW 14 22 30 1016 10 16.09344 0 0

Powered by AerisWeather